Location: Kuffner-Sternwarte
(48.2130°N, 16.2960°E)
Time: 22:06:50
(UTC+01:00)

COROT - Pass Details

Date: 16 January 2018
Orbit: 599 x 890 km, 90.0° (Epoch: 19 January)

Event Time Altitude Azimuth Distance (km) Brightness Sun altitude
Rises 17:04:28 0° 175° (S) 3,165 9.5 -6.0°
Reaches altitude 10° 17:06:50 10° 174° (S) 2,200 8.6 -6.3°
Maximum altitude 17:11:41 85° 88° (E) 687 5.8 -7.1°
Drops below altitude 10° 17:16:12 10° 359° (N) 2,052 8.0 -7.7°
Sets 17:18:21 0° 359° (N) 2,935 8.8 -8.1°
